Location: Taueru River
(41.0667°S, 175.6333°E)
Time: 20:10:11
(UTC+00:00)

Cosmos 2112 Rocket - Pass Details

Date: 08 December 2025
Orbit: 752 x 783 km, 74.1° (Epoch: 13 April)

Event Time Altitude Azimuth Distance (km) Brightness Sun altitude
Exits shadow 10:48:30 30° 313° (NW) 1,395 5.1 -23.5°
Maximum altitude 10:51:02 57° 248° (WSW) 932 4.6 -23.6°
Drops below altitude 10° 10:56:21 10° 169° (SSE) 2,373 7.3 -23.9°
Sets 10:58:49 0° 164° (SSE) 3,310 8.2 -24.1°
